Regional Weather Roundup
Issued by NWS

Home | Current Version | Previous Version | Text Only | Print | Product List | Glossary Off
Versions: 1 2 3 4 5 6 7 8 9 10 11 12 13 14 15 16 17 18 19 20 21 22 23 24 25 26 27 28 29 30 31 32 33 34 35 36 37 38 39 40 41 42 43 44 45 46 47 48 49 50

000
ASUS43 KMPX 021110
RWRMN
WEATHER ROUNDUP FOR MINNESOTA
NATIONAL WEATHER SERVICE TWIN CITIES/CHANHASSEN MN
600 AM CDT SUN AUG 02 2015


NOTE: "FAIR" INDICATES FEW OR NO CLOUDS BELOW 12,000 FEET WITH NO
SIGNIFICANT WEATHER AND/OR OBSTRUCTIONS TO VISIBILITY. N/A MEANS
CURRENT SKY AND/OR WEATHER CONDITIONS ARE NOT AVAILABLE.

MNZ060>063-068>070-021200-
   Twin Cities Metro

CITY           SKY/WX    TMP DP  RH WIND       PRES   REMARKS
TWIN CITIES    PTCLDY    73  63  70 W14G21    29.65R
ST PAUL        CLEAR     72  63  73 NW14      29.67R
CRYSTAL        CLEAR     72  64  76 NW9       29.66R
BLAINE         CLEAR     72  64  78 NW5       29.67R
LAKEVILLE      CLEAR     70  63  78 SW6       29.65R
EDEN PRAIRIE   CLEAR     70  64  81 W12       29.67R
SOUTH ST PAUL  CLEAR     73  62  67 W5        29.64R
LAKE ELMO      FAIR      72  64  78 CALM      29.68R
$$
MNZ001>005-007-008-013>017-022>024-027-028-021200-
   Northwest Minnesota

CITY           SKY/WX    TMP DP  RH WIND       PRES   REMARKS
BEMIDJI        MOCLDY    59  57  93 W3        29.67R
HALLOCK        PTCLDY    61  57  88 N6        29.70R
ROSEAU         PTCLDY    59  54  82 NW3       29.68R
WARROAD        MOCLDY    59  55  88 NW5       29.68R
THIEF RVR FALL CLOUDY    63  57  82 NW7       29.67R
CROOKSTON      MOCLDY    63  61  94 N9        29.68R
FOSSTON        PTCLDY    61  57  88 CALM      29.65F
DETROIT LAKES  PTCLDY    66  63  88 NE7       29.66S
MOORHEAD       CLEAR     68  64  88 NE8       29.60F
PARK RAPIDS    PTCLDY    66  60  81 E6        29.66S
MAHNOMEN       PTSUNNY   63  60  90 NE5       29.65S
$$
MNZ006-009>011-018-025>026-021200-
   North Central Minnesota

CITY           SKY/WX    TMP DP  RH WIND       PRES   REMARKS
BAUDETTE       MOCLDY    59  57  93 N6        29.65R
FLAG ISLAND    PTCLDY    64  59  82 W9        29.66R
INTL FALLS     MOCLDY    58  57  97 NW5       29.64R
WASKISH        MOCLDY    64  59  82 NW5       29.67R THUNDER
BIG FORK       RAIN      63  57  82 N7        29.67R
LONGVILLE      PTCLDY    61  61 100 CALM      29.66S
GRAND RAPIDS   PTCLDY    59  55  88 CALM      29.67R
CRANE LAKE       N/A     55  54  94 CALM      29.65F VSB 3/4
ORR            MOCLDY    61  55  82 CALM      29.64R
COOK           RAIN      61  57  88 NW8       29.67R
WALKER         FAIR      59  58  96 CALM      29.66F
$$
MNZ012-019>021-037-021200-
   Northeast Minnesota

CITY           SKY/WX    TMP DP  RH WIND       PRES   REMARKS
DULUTH         PTCLDY    64  55  72 N5        29.64F
ELY            CLOUDY    61  55  82 W6        29.64S
HIBBING        MOCLDY    58  54  86 CALM      29.64F
EVELETH        CLOUDY    59  54  82 CALM      29.64F
DULUTH HARBOR  PTCLDY    64  61  88 SE6       29.64F
TWO HARBORS    CLOUDY    66  57  72 S3        29.61S
SILVER BAY     CLOUDY    66  54  63 W3        29.60F
GRAND MARAIS     N/A     63  57  81 VRB5      29.57F
G MARAIS ARPRT CLOUDY    57  54  88 NW3       29.64F
$$
MNZ029>031-032-039>041-046>048-054>057-064-021200-
   West Central Minnesota

CITY           SKY/WX    TMP DP  RH WIND       PRES   REMARKS
FERGUS FALLS   CLEAR     64  64 100 SE7       29.60F
WHEATON        CLEAR     63  59  88 CALM      29.64R
MORRIS         PTCLDY    63  61  94 SE8       29.62F
ALEXANDRIA     PTCLDY    65  63  93 SE5       29.65F
ELBOW LAKE     FAIR      65  64  97 CALM      29.61F
WADENA         PTCLDY    63  63 100 CALM      29.64F
GLENWOOD       PTCLDY    64  63  94 SW6       29.65F
APPLETON       PTCLDY    68  63  83 SW7       29.64S
BENSON         PTCLDY    64  63  94 CALM      29.65F
ORTONVILLE     PTCLDY    66  61  82 SW3       29.63F
MADISON        PTCLDY    66  59  77 SW7       29.66S
WILLMAR        FAIR      64  63  94 SW6       29.68F
$$
MNZ033>034-036-042>043-049>051-058-059-021200-
   Central Minnesota

CITY           SKY/WX    TMP DP  RH WIND       PRES   REMARKS
ST CLOUD       PTCLDY    67  64  90 SW6       29.66S
SAUK CENTRE    FAIR      63  62  96 CALM      29.66F
PAYNESVILLE    PTCLDY    64  62  95 S6        29.65F
AITKIN         PTCLDY    66  61  82 CALM      29.65S
PINE RIVER     PTCLDY    63  63 100 CALM      29.71R
BRAINERD       PTCLDY    66  65  96 NE3       29.66R
STAPLES        MOCLDY    64  64 100 CALM      29.65S
LONG PRAIRIE   FAIR      63  61  94 CALM      29.66F
LITTLE FALLS   PTCLDY    63  61  94 CALM      29.65S
LITCHFIELD     CLEAR     68  66  94 W5        29.67F
BUFFALO        CLEAR     68  63  85 SW3       29.68R
MAPLE LAKE     CLEAR     68  66  94 SW5       29.66R
$$
MNZ037-044-045-052-053-021200-
   East Central Minnesota

CITY           SKY/WX    TMP DP  RH WIND       PRES   REMARKS
PRINCETON      CLEAR     66  64  94 SW5       29.67R
MORA           PTCLDY    64  63  94 S5        29.66F
CAMBRIDGE      PTCLDY    70  61  73 CALM      29.64S
RUSH CITY      MOCLDY    66  63  90 CALM      29.67R
MOOSE LAKE     MOCLDY    63  61  94 E3        29.65F
HINCKLEY       FAIR      61  61 100 CALM      29.65R
CLOQUET        PTCLDY    63  55  77 CALM      29.66R
MCGREGOR       PTCLDY    63  61  94 CALM      29.66F
$$
MNZ071>073-080-081-089-090-097-098-021200-
   Southwest Minnesota

CITY           SKY/WX    TMP DP  RH WIND       PRES   REMARKS
MONTEVIDEO     PTCLDY    64  59  82 W8        29.67F
GRANITE FALLS  CLEAR     64  61  88 S8        29.69F
CANBY          CLEAR     70  60  70 W13G20    29.69S
MARSHALL       CLEAR     68  57  68 W10G17    29.71S
REDWOOD FALLS  CLEAR     69  62  78 SW9       29.68F
OLIVIA         CLEAR     63  59  88 W5        29.67F
PIPESTONE      CLEAR     63  61  94 SW7       29.77S
WINDOM         CLEAR     66  63  88 SW8       29.75R
WORTHINGTON    CLEAR     66  61  82 SW14G20   29.77S
JACKSON        CLEAR     70  63  78 SW13      29.77R
TRACY          CLEAR     68  63  83 W13G20    29.72S
SLAYTON        CLEAR     68  61  79 W14       29.75S
$$
MNZ065>067-074>077-082>085-091>093-021200-
   South Central Minnesota

CITY           SKY/WX    TMP DP  RH WIND       PRES   REMARKS
MANKATO        CLEAR     70  63  78 SW8       29.71R
NEW ULM        CLEAR     68  63  83 SW9       29.70R
ST JAMES       CLEAR     70  64  83 SW8       29.73R
FAIRMONT       CLEAR     70  63  78 SW12      29.75R
GLENCOE        CLEAR     68  65  89 SW7       29.67R
FARIBAULT      CLEAR     70  64  83 S8        29.69S
OWATONNA       CLEAR     70  64  83 S13G20    29.70F
WASECA         CLEAR     68  64  88 S13G18    29.71F
ALBERT LEA     CLEAR     72  68  88 SW12G17   29.73F
$$
MNZ078>079-086>088-094>096-021200-
   Southeast Minnesota

CITY           SKY/WX    TMP DP  RH WIND       PRES   REMARKS
ROCHESTER      PTCLDY    70  66  87 SW16      29.73F
RED WING       CLEAR     73  63  68 SW9G22    29.64F
STANTON        CLEAR     70  64  80 SW9       29.65S
DODGE CENTER   PTCLDY    68  64  88 SW15      29.71F
WINONA         CLEAR     73  68  83 SW8       29.70F
AUSTIN         PTCLDY    72  66  83 SW8       29.75F
PRESTON        MOCLDY    70  65  86 SW12      29.76F
$$
ABBREVIATIONS USED IN REMARKS
   TC - TEMPERATURES IN CELSIUS
  WCI - WIND CHILL INDEX
   HX - HEAT INDEX
  VSB - VISIBILITY
$$



USA.gov is the U.S. government's official web portal to all federal, state and local government web resources and services.